Time,TemperatureF,DewpointF,PressureIn,WindDirection,WindDirectionDegrees,WindSpeedMPH,WindSpeedGustMPH,Humidity,HourlyPrecipIn,Conditions,Clouds,dailyrainin,SoftwareType,DateUTC
2015-09-04 00:01:00,70.9,61.2,29.94,ENE,67,2.0,5.0,71,0.00,,,0.00,WUHU216WMR100,2015-09-04 05:01:00,
2015-09-04 00:06:00,70.7,61.0,29.94,ENE,67,3.7,3.7,71,0.00,,,0.00,WUHU216WMR100,2015-09-04 05:06:00,
2015-09-04 00:11:00,70.5,60.8,29.94,ENE,67,3.7,3.7,71,0.00,,,0.00,WUHU216WMR100,2015-09-04 05:11:00,
2015-09-04 00:16:00,70.5,61.2,29.94,North,0,0.0,3.7,72,0.00,,,0.00,WUHU216WMR100,2015-09-04 05:16:00,
2015-09-04 00:21:00,70.3,61.0,29.94,East,90,3.0,4.1,72,0.00,,,0.00,WUHU216WMR100,2015-09-04 05:21:00,
2015-09-04 00:26:00,70.3,61.0,29.94,ENE,67,1.7,4.1,72,0.00,,,0.00,WUHU216WMR100,2015-09-04 05:26:00,
2015-09-04 00:31:00,70.2,60.9,29.94,ENE,67,3.5,5.0,72,0.00,,,0.00,WUHU216WMR100,2015-09-04 05:31:00,
2015-09-04 00:36:00,70.2,60.9,29.94,ENE,67,2.4,5.0,72,0.00,,,0.00,WUHU216WMR100,2015-09-04 05:36:00,
2015-09-04 00:41:00,70.2,61.3,29.94,ENE,67,0.0,2.4,73,0.00,,,0.00,WUHU216WMR100,2015-09-04 05:41:00,
2015-09-04 00:46:00,70.0,61.1,29.94,ENE,67,3.0,3.0,73,0.00,,,0.00,WUHU216WMR100,2015-09-04 05:46:00,
2015-09-04 00:51:00,70.0,61.1,29.94,ENE,67,2.0,3.0,73,0.00,,,0.00,WUHU216WMR100,2015-09-04 05:51:00,
2015-09-04 00:56:00,69.8,60.9,29.94,ENE,67,0.0,3.0,73,0.00,,,0.00,WUHU216WMR100,2015-09-04 05:56:00,
2015-09-04 01:01:00,69.8,61.3,29.94,ENE,67,2.0,2.4,74,0.00,,,0.00,WUHU216WMR100,2015-09-04 06:01:00,
2015-09-04 01:06:00,69.8,60.9,29.94,ENE,67,0.0,2.4,73,0.00,,,0.00,WUHU216WMR100,2015-09-04 06:06:00,
2015-09-04 01:11:00,69.8,60.9,29.94,ENE,67,0.0,0.0,73,0.00,,,0.00,WUHU216WMR100,2015-09-04 06:11:00,
2015-09-04 01:16:00,69.6,61.1,29.94,ENE,67,0.0,0.0,74,0.00,,,0.00,WUHU216WMR100,2015-09-04 06:16:00,
2015-09-04 01:21:00,69.4,60.9,29.94,ENE,67,0.0,0.0,74,0.00,,,0.00,WUHU216WMR100,2015-09-04 06:21:00,
2015-09-04 01:26:00,69.4,60.9,29.94,ENE,67,1.9,2.4,74,0.00,,,0.00,WUHU216WMR100,2015-09-04 06:26:00,
2015-09-04 01:31:00,69.4,60.9,29.94,NNW,337,5.0,5.0,74,0.00,,,0.00,WUHU216WMR100,2015-09-04 06:31:00,
2015-09-04 01:36:00,69.4,61.3,29.94,NNW,337,1.7,5.0,75,0.00,,,0.00,WUHU216WMR100,2015-09-04 06:36:00,
2015-09-04 01:41:00,69.6,61.8,29.94,NE,45,1.7,5.0,76,0.00,,,0.00,WUHU216WMR100,2015-09-04 06:41:00,
2015-09-04 01:46:00,69.6,61.8,29.94,NE,45,0.0,4.1,76,0.00,,,0.00,WUHU216WMR100,2015-09-04 06:46:00,
2015-09-04 01:51:00,69.4,61.6,29.94,NE,45,5.0,5.0,76,0.00,,,0.00,WUHU216WMR100,2015-09-04 06:51:00,
2015-09-04 01:56:00,69.4,61.6,29.94,NW,315,5.7,5.7,76,0.00,,,0.00,WUHU216WMR100,2015-09-04 06:56:00,
2015-09-04 02:01:00,69.4,61.6,29.94,NE,40,2.8,5.7,76,0.00,,,0.00,WUHU216WMR100,2015-09-04 07:01:00,
2015-09-04 02:06:00,69.3,61.2,29.94,NNE,22,0.0,3.7,75,0.00,,,0.00,WUHU216WMR100,2015-09-04 07:06:00,
2015-09-04 02:11:00,69.3,61.5,29.94,NNE,22,0.0,0.0,76,0.00,,,0.00,WUHU216WMR100,2015-09-04 07:11:00,
2015-09-04 02:16:00,69.1,61.3,29.94,NNE,22,0.0,0.0,76,0.00,,,0.00,WUHU216WMR100,2015-09-04 07:16:00,
2015-09-04 02:21:00,68.9,61.1,29.94,NNE,22,0.0,0.0,76,0.00,,,0.00,WUHU216WMR100,2015-09-04 07:21:00,
2015-09-04 02:26:00,68.9,61.1,29.94,NNE,22,0.0,0.0,76,0.00,,,0.00,WUHU216WMR100,2015-09-04 07:26:00,
2015-09-04 02:31:00,68.7,61.0,29.94,NNE,22,0.0,0.0,76,0.00,,,0.00,WUHU216WMR100,2015-09-04 07:31:00,
2015-09-04 02:36:00,68.5,60.8,29.94,NNE,22,0.0,0.0,76,0.00,,,0.00,WUHU216WMR100,2015-09-04 07:36:00,
2015-09-04 02:41:00,68.4,60.7,29.94,NNE,22,0.0,0.0,76,0.00,,,0.00,WUHU216WMR100,2015-09-04 07:41:00,
2015-09-04 02:46:00,68.2,60.5,29.94,NNE,22,0.0,0.0,76,0.00,,,0.00,WUHU216WMR100,2015-09-04 07:46:00,
2015-09-04 02:51:00,68.2,60.5,29.94,NNE,22,0.0,0.0,76,0.00,,,0.00,WUHU216WMR100,2015-09-04 07:51:00,
2015-09-04 02:56:00,68.0,60.3,29.94,NNE,22,0.0,0.0,76,0.00,,,0.00,WUHU216WMR100,2015-09-04 07:56:00,
2015-09-04 03:01:00,67.8,60.1,29.94,NNE,22,0.0,0.0,76,0.00,,,0.00,WUHU216WMR100,2015-09-04 08:01:00,
2015-09-04 03:06:00,67.8,60.4,29.94,NNE,22,0.0,0.0,77,0.00,,,0.00,WUHU216WMR100,2015-09-04 08:06:00,
2015-09-04 03:11:00,67.8,60.4,29.94,NNE,22,0.0,0.0,77,0.00,,,0.00,WUHU216WMR100,2015-09-04 08:11:00,
2015-09-04 03:16:00,67.6,60.2,29.94,NNE,22,0.0,0.0,77,0.00,,,0.00,WUHU216WMR100,2015-09-04 08:16:00,
2015-09-04 03:21:00,67.5,60.1,29.94,NNE,22,0.0,0.0,77,0.00,,,0.00,WUHU216WMR100,2015-09-04 08:21:00,
2015-09-04 03:26:00,67.5,60.1,29.94,NNE,22,0.0,0.0,77,0.00,,,0.00,WUHU216WMR100,2015-09-04 08:26:00,
2015-09-04 03:31:00,67.5,60.1,29.94,NNE,22,0.0,0.0,77,0.00,,,0.00,WUHU216WMR100,2015-09-04 08:31:00,
2015-09-04 03:36:00,67.5,60.1,29.94,NNE,22,0.0,0.0,77,0.00,,,0.00,WUHU216WMR100,2015-09-04 08:36:00,
2015-09-04 03:41:00,67.3,59.9,29.94,NNE,22,0.0,0.0,77,0.00,,,0.00,WUHU216WMR100,2015-09-04 08:41:00,
2015-09-04 03:46:00,67.3,59.9,29.94,NNE,22,0.0,0.0,77,0.00,,,0.00,WUHU216WMR100,2015-09-04 08:46:00,
2015-09-04 03:51:00,67.1,59.8,29.94,NNE,22,0.0,0.0,77,0.00,,,0.00,WUHU216WMR100,2015-09-04 08:51:00,
2015-09-04 03:56:00,67.1,59.8,29.94,NNE,22,0.0,0.0,77,0.00,,,0.00,WUHU216WMR100,2015-09-04 08:56:00,
2015-09-04 04:01:00,66.9,59.6,29.94,NNE,22,0.0,0.0,77,0.00,,,0.00,WUHU216WMR100,2015-09-04 09:01:00,
2015-09-04 04:06:00,66.9,59.6,29.94,NNE,22,0.0,0.0,77,0.00,,,0.00,WUHU216WMR100,2015-09-04 09:06:00,